DW5656 Weather Reports


time (UTC)temp
F
wind
direction
speed
knots
gust
knots
rain 1hr
in
rain 24hr
in
rain mn
in
humidity
%
barometer
mb
20260901031723 74 24 2.6 4.3 0.00 0.00 0.00 59 1016.2
20260901030823 74 3 1.7 6.1 0.00 0.00 0.00 64 1016.1
20260901025923 74 288 0.0 4.3 0.00 0.00 0.00 64 1016.1
20260901025023 74 276 0.0 0.9 0.00 0.00 0.00 64 1016.1
20260901024144 74 0 0.0 0.0 0.00 0.00 0.00 64 1016.2
20260901023223 74 276 0.9 1.7 0.00 0.00 0.00 64 1016.2
20260901022323 74 276 0.9 2.6 0.00 0.00 0.00 64 1016.3
20260901021423 74 276 0.9 2.6 0.00 0.00 0.00 64 1016.3
20260901020544 74 276 1.7 3.5 0.00 0.00 0.00 64 1016.4
20260901015623 74 258 1.7 3.5 0.00 0.00 0.00 65 1016.4
20260901014722 73 255 1.7 3.5 0.00 0.00 0.00 66 1016.4
20260901013823 73 240 1.7 4.3 0.00 0.00 0.00 66 1016.5
20260901012944 73 225 1.7 4.3 0.00 0.00 0.00 66 1016.6
20260901012022 73 219 2.6 4.3 0.00 0.00 0.00 67 1016.6
20260901011122 73 230 1.7 5.2 0.00 0.00 0.00 67 1016.5
20260901010222 73 234 1.7 4.3 0.00 0.00 0.00 66 1016.5
20260901005322 73 231 2.6 6.1 0.00 0.00 0.00 66 1016.5
20260901004422 73 226 3.5 7.8 0.00 0.00 0.00 65 1016.6
20260901003522 73 231 2.6 7.8 0.00 0.00 0.00 64 1016.6
20260901002622 73 240 3.5 6.1 0.00 0.00 0.00 64 1016.6
20260901001722 73 228 4.3 8.7 0.00 0.00 0.00 63 1016.7
20260901000822 74 221 3.5 8.7 0.00 0.00 0.00 61 1016.5
20260831235922 75 237 2.6 7.8 0.00 0.00 0.00 57 1016.4
20260831235022 75 225 1.7 6.1 0.00 0.00 0.00 56 1016.4
20260831234122 76 233 1.7 6.1 0.00 0.00 0.00 54 1016.3
20260831233243 76 218 2.6 6.1 0.00 0.00 0.00 53 1016.2
20260831232322 76 215 2.6 7.0 0.00 0.00 0.00 51 1016.2
20260831231422 77 218 2.6 6.1 0.00 0.00 0.00 49 1016.2
20260831230522 78 220 2.6 5.2 0.00 0.00 0.00 48 1016.2
20260831225622 78 211 1.7 7.0 0.00 0.00 0.00 48 1016.1
20260831224722 78 217 1.7 5.2 0.00 0.00 0.00 48 1016.0
20260831223822 79 242 1.7 3.5 0.00 0.00 0.00 49 1016.0
20260831222922 79 244 1.7 3.5 0.00 0.00 0.00 49 1016.1
20260831222022 79 231 1.7 4.3 0.00 0.00 0.00 49 1016.1
20260831221122 80 207 1.7 3.5 0.00 0.00 0.00 48 1016.2
20260831220243 80 236 2.6 4.3 0.00 0.00 0.00 48 1016.2
20260831215322 81 225 1.7 5.2 0.00 0.00 0.00 47 1016.3
20260831214422 81 225 2.6 5.2 0.00 0.00 0.00 47 1016.3
20260831213522 82 241 2.6 6.1 0.00 0.00 0.00 45 1016.4
20260831212622 84 247 2.6 4.3 0.00 0.00 0.00 42 1016.4
20260831211722 85 226 1.7 4.3 0.00 0.00 0.00 39 1016.3
20260831210843 86 220 1.7 4.3 0.00 0.00 0.00 37 1016.3
20260831205922 86 222 2.6 4.3 0.00 0.00 0.00 36 1016.2
20260831205022 87 235 1.7 5.2 0.00 0.00 0.00 35 1016.0
20260831204122 88 237 1.7 4.3 0.00 0.00 0.00 33 1015.8
20260831203243 89 251 2.6 6.1 0.00 0.00 0.00 32 1015.7
20260831202322 89 299 2.6 7.0 0.00 0.00 0.00 31 1015.5
20260831201422 89 275 4.3 8.7 0.00 0.00 0.00 31 1015.3
20260831200543 90 272 2.6 7.8 0.00 0.00 0.00 30 1015.2
20260831195621 90 275 3.5 7.8 0.00 0.00 0.00 30 1015.0
20260831194722 91 270 5.2 9.6 0.00 0.00 0.00 30 1014.8
20260831193821 91 270 5.2 8.7 0.00 0.00 0.00 30 1014.6
20260831192921 91 270 5.2 10.4 0.00 0.00 0.00 30 1014.4
20260831192022 92 274 4.3 9.6 0.00 0.00 0.00 29 1014.2
20260831191122 92 267 3.5 8.7 0.00 0.00 0.00 29 1014.2
20260831190221 93 269 4.3 7.8 0.00 0.00 0.00 29 1014.1
20260831185321 93 267 5.2 9.6 0.00 0.00 0.00 29 1014.1
20260831184421 94 262 4.3 9.6 0.00 0.00 0.00 29 1013.9
20260831183521 94 268 5.2 9.6 0.00 0.00 0.00 29 1013.9
20260831182621 95 272 5.2 10.4 0.00 0.00 0.00 30 1013.8
20260831181721 95 270 5.2 12.2 0.00 0.00 0.00 30 1013.9
20260831180842 95 272 5.2 12.2 0.00 0.00 0.00 30 1013.9
20260831175921 96 264 5.2 12.2 0.00 0.00 0.00 30 1013.9
20260831175021 96 266 6.1 11.3 0.00 0.00 0.00 30 1013.9
20260831174122 96 270 4.3 12.2 0.00 0.00 0.00 31 1013.9
20260831173221 96 237 5.2 9.6 0.00 0.00 0.00 35 1013.8
20260831172321 96 226 4.3 10.4 0.00 0.00 0.00 35 1013.8
20260831171421 96 219 4.3 9.6 0.00 0.00 0.00 34 1013.9
20260831170521 97 209 4.3 7.8 0.00 0.00 0.00 33 1013.9
20260831165621 97 208 3.5 9.6 0.00 0.00 0.00 31 1013.9
20260831164742 98 232 3.5 7.8 0.00 0.00 0.00 29 1013.8
20260831163821 98 224 4.3 7.0 0.00 0.00 0.00 30 1013.8
20260831162921 97 238 3.5 9.6 0.00 0.00 0.00 31 1013.9
20260831162021 98 236 3.5 8.7 0.00 0.00 0.00 32 1014.0
20260831161121 98 220 4.3 7.8 0.00 0.00 0.00 33 1014.1
20260831160221 97 242 4.3 8.7 0.00 0.00 0.00 33 1014.1
20260831155342 97 261 4.3 8.7 0.00 0.00 0.00 32 1014.1
20260831154442 98 249 3.5 8.7 0.00 0.00 0.00 32 1014.2
20260831153542 98 249 3.5 9.6 0.00 0.00 0.00 31 1014.2
20260831152621 98 203 2.6 7.0 0.00 0.00 0.00 29 1014.3
20260831151742 98 255 4.3 9.6 0.00 0.00 0.00 30 1014.3
20260831150821 98 231 3.5 8.7 0.00 0.00 0.00 31 1014.3
20260831145921 98 211 2.6 7.0 0.00 0.00 0.00 30 1014.3
20260831145042 98 213 3.5 7.0 0.00 0.00 0.00 29 1014.4
20260831144121 98 205 2.6 8.7 0.00 0.00 0.00 29 1014.5
20260831143221 98 257 2.6 7.0 0.00 0.00 0.00 30 1014.7
20260831142321 97 253 2.6 7.0 0.00 0.00 0.00 29 1014.8
20260831141420 97 224 2.6 7.8 0.00 0.00 0.00 29 1014.9
20260831140520 97 213 1.7 6.1 0.00 0.00 0.00 30 1015.0
20260831135621 96 264 2.6 3.5 0.00 0.00 0.00 31 1015.0
20260831134720 96 173 2.6 5.2 0.00 0.00 0.00 32 1015.1
20260831133820 96 253 2.6 5.2 0.00 0.00 0.00 31 1015.3
20260831132920 95 334 2.6 6.1 0.00 0.00 0.00 31 1015.3
20260831132020 95 293 2.6 7.0 0.00 0.00 0.00 32 1015.5
20260831131120 95 279 1.7 6.1 0.00 0.00 0.00 34 1015.5
20260831130220 94 248 2.6 6.1 0.00 0.00 0.00 34 1015.5
20260831125320 94 289 1.7 6.1 0.00 0.00 0.00 35 1015.6
20260831124420 94 267 1.7 6.1 0.00 0.00 0.00 35 1015.6
20260831123520 93 298 2.6 6.1 0.00 0.00 0.00 36 1015.8
20260831122641 92 273 2.6 7.8 0.00 0.00 0.00 36 1015.9
20260831121720 93 291 2.6 6.1 0.00 0.00 0.00 37 1016.0
20260831120820 92 254 2.6 6.1 0.00 0.00 0.00 37 1016.1
20260831115920 93 248 2.6 6.1 0.00 0.00 0.00 37 1016.3
20260831115020 92 255 1.7 6.1 0.00 0.00 0.00 37 1016.4
20260831114141 92 342 1.7 3.5 0.00 0.00 0.00 38 1016.5
20260831113220 91 26 1.7 4.3 0.00 0.00 0.00 38 1016.5
20260831112320 91 84 2.6 7.0 0.00 0.00 0.00 38 1016.6
20260831111420 91 83 1.7 7.0 0.00 0.00 0.00 38 1016.6
20260831110520 90 167 1.7 5.2 0.00 0.00 0.00 39 1016.7
20260831105641 89 19 1.7 4.3 0.00 0.00 0.00 40 1016.7
20260831104720 89 86 1.7 5.2 0.00 0.00 0.00 40 1016.7
20260831103841 89 84 1.7 5.2 0.00 0.00 0.00 40 1016.9
20260831102920 88 90 1.7 6.1 0.00 0.00 0.00 41 1016.8
20260831102020 88 108 1.7 6.1 0.00 0.00 0.00 41 1017.0
20260831101120 88 104 1.7 6.1 0.00 0.00 0.00 41 1017.1
20260831100220 88 110 1.7 6.1 0.00 0.00 0.00 41 1017.1
20260831095320 87 99 1.7 6.1 0.00 0.00 0.00 42 1016.9
20260831094420 86 102 1.7 5.2 0.00 0.00 0.00 44 1016.8
20260831093520 86 84 1.7 2.6 0.00 0.00 0.00 44 1016.8
20260831092620 85 100 0.9 5.2 0.00 0.00 0.00 45 1016.9
20260831091720 84 95 0.9 3.5 0.00 0.00 0.00 45 1016.9
20260831090841 84 91 1.7 3.5 0.00 0.00 0.00 47 1017.0
20260831085942 82 61 2.6 3.5 0.00 0.00 0.00 48 1016.9
20260831085020 81 104 2.6 5.2 0.00 0.00 0.00 49 1016.9
20260831084120 81 104 2.6 5.2 0.00 0.00 0.00 49 1017.0
20260831083220 81 61 0.9 3.5 0.00 0.00 0.00 49 1017.1
20260831082319 81 42 0.9 2.6 0.00 0.00 0.00 51 1017.0
20260831081420 81 44 0.9 2.6 0.00 0.00 0.00 53 1017.1
20260831080519 80 67 1.7 3.5 0.00 0.00 0.00 54 1017.0
20260831075619 79 65 1.7 3.5 0.00 0.00 0.00 55 1017.1
20260831074719 78 57 1.7 4.3 0.00 0.00 0.00 55 1017.0
20260831073819 78 46 1.7 3.5 0.00 0.00 0.00 56 1016.9
20260831072919 78 26 0.9 3.5 0.00 0.00 0.00 57 1016.8
20260831072019 77 23 0.9 2.6 0.00 0.00 0.00 58 1016.8
20260831071119 76 28 1.7 3.5 0.00 0.00 0.00 60 1016.8
20260831070219 76 33 1.7 3.5 0.00 0.00 0.00 60 1016.8
20260831065319 75 33 2.6 4.3 0.00 0.00 0.00 62 1016.7
20260831064440 74 36 2.6 4.3 0.00 0.00 0.00 63 1016.5
20260831063519 74 35 2.6 4.3 0.00 0.00 0.00 64 1016.4
20260831062619 74 52 1.7 4.3 0.00 0.00 0.00 65 1016.3
20260831061740 74 23 1.7 3.5 0.00 0.00 0.00 66 1016.2
20260831060840 74 13 1.7 3.5 0.00 0.00 0.00 66 1016.2
20260831055919 75 2 1.7 3.5 0.00 0.00 0.00 67 1016.2
20260831055019 75 355 1.7 3.5 0.00 0.00 0.00 67 1016.1
20260831054119 75 359 2.6 3.5 0.00 0.00 0.00 67 1016.1
20260831053219 75 4 2.6 3.5 0.00 0.00 0.00 67 1015.9
20260831052319 75 10 2.6 3.5 0.00 0.00 0.00 67 1015.8
20260831051419 75 341 1.7 4.3 0.00 0.00 0.00 68 1015.9
20260831050519 75 351 1.7 3.5 0.00 0.00 0.00 68 1015.9
20260831045619 76 351 1.7 2.6 0.00 0.00 0.00 68 1016.0
20260831044719 76 351 1.7 3.5 0.00 0.00 0.00 67 1016.0
20260831043819 76 346 1.7 3.5 0.00 0.00 0.00 67 1015.9
20260831042919 76 313 1.7 3.5 0.00 0.00 0.00 68 1016.0
20260831042019 76 306 1.7 2.6 0.00 0.00 0.00 69 1016.0
20260831041119 76 306 1.7 2.6 0.00 0.00 0.00 69 1016.1
20260831040219 75 299 1.7 3.5 0.00 0.00 0.00 70 1016.1
20260831035319 75 242 0.9 2.6 0.00 0.00 0.00 71 1016.1
20260831034419 74 235 0.9 1.7 0.00 0.00 0.00 72 1016.1
20260831033519 74 232 0.9 1.7 0.00 0.00 0.00 73 1016.1
20260831032619 74 232 0.0 0.9 0.00 0.00 0.00 74 1016.2